sat.trackr.live / text

‹ back to catalog

STARLINK-3559

NORAD 51860 · 2022-022J

PAYLOAD ACTIVE UNKNOWN

§ Identity

Operator
Country
US
Launch date
2022-03-03
Launch site
AFETR
Launch vehicle
Mass (kg)
RCS (m²)

Purposes: comms

External: N2YO · Heavens-Above · Gunter

§ Orbital elements

Epoch: 2026-05-25T02:28:44.174784Z

Period
95.44 min
Inclination
53.2129°
Eccentricity
0.0001244
Mean motion
15.08827669 rev/d
Perigee alt
538.9 km
Apogee alt
540.6 km
Semi-major
6,917.9 km
B*
6.7685e-5
RAAN
26.0836°
Arg perigee
80.5508°
Mean anomaly
279.5624°
Rev number
23,465

§ Raw data

STARLINK-35591 51860U 22022J   26145.10328906  .00000789  00000+0  67685-4 0  99942 51860  53.2129  26.0836 0001244  80.5508 279.5624 15.08827669234653

JSON: /api/v1/satellites/51860 · /tle

For live sub-satellite position, see the globe view (requires WebGL).

§ Visibility from observer

Set your observer location to see the next 7 days of passes ≥ 10°. The values pass through the URL so the page stays shareable.

No JS? Fill the form by hand. The geolocation button needs JavaScript.